Погода Каменское

Погода Каменское : погода сейчас, прогноз погоды и архив. Всё, что Вы хотите узнать о погоде Каменское!

Поиск расширенной информации на нашем сайте:

Другие новости

Новости СМИ2

Главная страница сайта

Новости сайта

03.07.2017

Напоминаем, что на нашем специализированном сайте Метеоцентр.Азия вы можете получить высокодетализированные автоматические прогнозы погоды по пунктам России, СНГ и мира в авиационном формате (включающие направление и скорость ветра, видимость, явления погоды, количество и форму облачности, нижнюю и верхнюю границу облачности).


Погода Каменское - сегодня

Время (UTC), дата Ветер
(°,м/с) 
Видим.   Явления Облачность Т
(°С)
Тd
(°С)
f(%) Тe
(°С)
Pmin
(гПа)
dP
(гПа)
Po
(мм)
O2
(г/м3)
Тmin Tmax R s Состояние
почвы
12 17.07.17 020 (С) 20000 м  {ливн. осадки}  10/10 600 м 
[Sc]
+14.9 +12.4 85 +21  1001.5  1.5  748  283           
15 17.07.17 350 (С) н/о    н/о 
+13.1 +10.8 86 +16  1002.8  1.2  749  286           
18 17.07.17 050 (СВ) н/о    н/о 
+12.7 +10.2 85 +14  1004.2  1.4  750  287           
21 17.07.17 080 (В) 20000 м    9/9 600 м 
[Cu Sc]
+14.2 +9.6 74 +16  1005.4  1.2  750  286  +12.4    0.0    влажная 
00 18.07.17 090 (В) 20000 м    9/9 600 м 
[Cu Sc]
+16.6 +8.9 60 +17  1005.3  0.1  750  283           
03 18.07.17 140 (ЮВ) 20000 м    10/10 1000 м 
[Sc]
+18.5 +8.7 53 +20  1005  -0.2  750  282           
06 18.07.17 150 (ЮВ) 20000 м    10/10 1000 м 
[Sc]
+18.4 +8.9 54 +20  1005.1  0.1  750  282           
12 18.07.17 290 (З) 20000 м    10/10 1000 м 
[Sc]
+15 +10.8 76 +18  1005.7  0.2  751  285           
15 18.07.17 280 (З) н/о    н/о 
+13.4 +10.9 85 +16  1006  0.3  751  286           
18 18.07.17 280 (З) н/о    н/о 
+14.5 +9.3 71 +16  1006.3  0.3  751  286           
21 18.07.17 150 (ЮВ) 20000 м  в посл. час ливневой дождь  10/10 1000 м 
[Sc]
+15.8 +11.4 75 +20  1006.8  0.5  752  284  +13.2    0.1    влажная 
00 19.07.17 260 (З) 7-10{10}  20000 м  {ливн. осадки}  8/6 600 м средняя 
[Cu Sc|Ac trans]
+21.6 +9.8 47 +22  1006.5  -0.2  751  279           
06 19.07.17 260 (З) 6-10{13}  20000 м    8/4 1000 м средняя, верхняя 
[Sc|Ac trans|Ci fib]
+22.6 +4.2 30 +23  1006.6  0.5  752  279           
09 19.07.17 240 (ЮЗ) 3{10}  20000 м    8/8 1000 м 
[Sc]
+17.8 +7.8 52 +18  1008  1.3  752  283    +23.9       
12 19.07.17 280 (З) 20000 м    8/8 1000 м 
[Sc]
+11.7 +8.1 79 +13  1009.8  1.7  754  290           
15 19.07.17 240 (ЮЗ) н/о    н/о 
+11.5 +7.9 79 +11  1010.5  0.8  754  290           
18 19.07.17 060 (СВ) н/о    н/о 
+12.2 +7.8 74 +13  1011.6  755  290           
00 20.07.17 280 (З) 6-10{10}  20000 м    1/1 1000 м 
[Sc]
+23.2 +5.9 33 +23  1012.5  0.2  756  280           
03 20.07.17 240 (ЮЗ) 6{11}  20000 м    1/1 1000 м 
[Sc]
+24.8 +6.3 30 +25  1012  -0.5  755  278           
06 20.07.17 260 (З) 6-10{11}  20000 м    ясно 
+23.9 +7.5 35 +24  1012.3  0.4  756  279           
09 20.07.17 250 (З) 2{10}  20000 м    1/0 средняя 
[Ac trans]
+19.8 +9.3 51 +21  1014.1  1.6  757  283    +25       
12 20.07.17 230 (ЮЗ) 20000 м    ясно 
+12.6 +9.4 81 +12  1015.2  758  290           
15 20.07.17 270 (З) н/о    н/о 
+9.9 +8.5 91 +9  1016.1  0.9  758  293           
18 20.07.17 280 (З) н/о    н/о 
+10.7 +8.8 88 +11  1016.7  0.5  759  293           
00 21.07.17 260 (З) 20000 м    3/3 1000 м 
[Sc]
+22.4 +8.8 42 +22  1015.9  -0.7  758  281           
Время (UTC), дата Ветер
(°,м/с) 
Видим.   Явления Облачность Т
(°С)
Тd
(°С)
f(%) Тe
(°С)
Pmin
(гПа)
dP
(гПа)
Po
(мм)
O2
(г/м3)
Тmin Tmax R s Состояние
почвы

Для получения пояснительной информации подведите курсор к названию столбца.

ПОГОДА Каменское - архив

Всё, что Вы хотите узнать о погоде Каменское - удобно и подробно!

Выберите нужную дату (начиная с 1 января 2015* года) и нажмите кнопку "Найти".
Будут отображены архивные сводки погоды по пункту Каменское, начиная с указанной даты.


Отображать данные в формате CSV (для использования в таблицах Excel)


Внимание! Наш архив погоды предназначен исключительно для личного некоммерческого использования в познавательных целях. Если Вам необходимы официальные справки о состоянии погоды (для производственных, юридических, коммерческих и т.п. целей), обращайтесь в органы Росгидромета.

*Примечание: данная дата относится к архиву по метеостанциям СССР (Россия, СНГ, Балтия).
Архив по метеостанциям Зарубежной Европы и Азии (кроме Китая) хранится 10 дней, по другим регионам земного шара (Китай, Африка, Америка, Австралия, Океания) - 1 день.

Каменское - район местоположения метеостанции


Название, широта, долгота, высота метеостанции:
Каменское 62.43°ш. 166.08°д. 10 м над ур. моря [Российская Федерация]

Дополнительная информация

В oтличие oт бoльшинства пoгoдных сайтoв мы публикуем пoдрoбную метеoинфoрмацию в детальнoм прoфессиoнальнoм фoрмате.

Характеристики температуры и влажнoсти вoздуха измеряются на высoте 2 м в тени вдали oт зданий и деревьев.
Скoрoсть ветра измеряется на высoте 10 м (на урoвне рoста челoвека скoрoсть ветра ниже в 1.5-2 раза). Если метеoстанция нахoдится в гoрoде или в лесу, тo скoрoсть ветра занижена на 2-4 м/с пo сравнению с oткрытым местoм. Скoрoсть ветра над акватoриями крупных рек и oзёр, а также на вершинах хoлмoв на 2-5 м/с выше, чем в oбычных услoвиях.
Атмoсфернoе давление в разных тoчках местнoсти мoжет значительнo oтличаться oт давления на метеoстанции, в зависимoсти oт услoвий рельефа (при пoдъёме на 10 м давление пoнижается примернo на 1 мм рт.ст.).